Regional Weather Roundup
Issued by NWS

Home | Current Version | Previous Version | Graphics & Text | Print | Product List | Glossary On
Versions: 1 2 3 4 5 6 7 8 9 10 11 12 13 14 15 16 17 18 19 20 21 22 23 24 25 26 27 28 29 30 31 32 33 34 35 36 37 38 39 40 41 42 43 44 45 46 47 48 49 50
000
ASUS43 KLOT 090603
RWRIL

ILLINOIS REGIONAL WEATHER ROUNDUP
NATIONAL WEATHER SERVICE CHICAGO/ROMEOVILLE IL
1200 AM CST FRI DEC 09 2016

NOTE: "FAIR" INDICATES FEW OR NO CLOUDS BELOW 12,000 FEET WITH NO
SIGNIFICANT WEATHER AND/OR OBSTRUCTIONS TO VISIBILITY.

* THESE STATIONS ARE NOT UNDER NWS QUALITY CONTROL. THEY ALSO MAY NOT
  REPORT WEATHER SUCH AS PRECIPITATION OR FOG.

ILZ001-002-007-009-015-016-024-090700-
NORTHWEST ILLINOIS

CITY           SKY/WX    TMP DP  RH WIND       PRES   REMARKS
MOLINE         CLOUDY    23  11  60 W14G20    30.52R WCI  11
6HR MIN TEMP:  22; 6HR MAX TEMP:  23; 6HR PCP: TRACE;

STERLING*      FLURRIES  21  16  81 W13       30.48S WCI   9
SAVANNA*       CLOUDY    22  15  74 W12G17    30.48F WCI  10
$$

ILZ003-004-008-010-011-017-018-090700-
NORTH CENTRAL ILLINOIS

CITY           SKY/WX    TMP DP  RH WIND       PRES   REMARKS
ROCKFORD       CLOUDY    22  16  78 W10       30.46R WCI  11
6HR MIN TEMP:  22; 6HR MAX TEMP:  24; 6HR PCP: TRACE;

FREEPORT*      CLOUDY    19  15  82 W10       30.46S WCI   8
ROCHELLE*      CLOUDY    21  17  82 W14       30.45S WCI   8
$$

ILZ005-006-012>014-019>023-090700-
NORTHEAST ILLINOIS

CITY           SKY/WX    TMP DP  RH WIND       PRES   REMARKS
CHICAGO-OHARE  PTCLDY    22  16  78 W12       30.41R WCI  10
6HR MIN TEMP:  21; 6HR MAX TEMP:  24; 6HR PCP:  0.01;

CHICAGO-MIDWAY PTCLDY    23  15  71 W10       30.42S WCI  12
6HR MIN TEMP:  23; 6HR MAX TEMP:  25; 6HR PCP: TRACE;

AURORA         CLEAR     20  15  81 W12       30.44R WCI   8
6HR MIN TEMP:  20; 6HR MAX TEMP:  24;

LANSING*       MOCLDY    22  18  85 W9        30.43S WCI  11
WAUKEGAN       PTCLDY    21  16  81 W9        30.38R WCI  11
6HR MIN TEMP:  21; 6HR MAX TEMP:  24;

DUPAGE AIRPORT PTCLDY    21  14  74 W14       30.42R WCI   8
6HR MIN TEMP:  21; 6HR MAX TEMP:  23; 6HR PCP: TRACE;

KANKAKEE*      CLOUDY    23  16  75 W13       30.46S WCI  11
WHEELING       CLEAR     22  16  78 W9        30.42R WCI  12
6HR MIN TEMP:  22; 6HR MAX TEMP:  24;

NORTHERLY ISL    N/A     24  17  74 W12         N/A  WCI  13
$$

LMZ740>746-090700-
SOUTHERN LAKE MICHIGAN

STATION/POSITION SKY/WX   TEMP    WIND        PRES    VSBY  WAVE
                          AIR SEA DIR/SP/G                  HT/PER
                          (F)     (DEG/KT/KT) (MB)    (MI)  (FT/S)
HARRISON CRIB              24     270/ 22/ 25   N/A
BURNHAM HARBOR             24     280/ 12/ 16   N/A
CALUMET HARBOR             23     250/  7/ 14 1029.3R
BURNS HARBOR               27     280/ 16/ 22 1029.8R
$$

ILZ025>027-034>036-040-047-049-050-058-095>099-090700-
WEST-CENTRAL ILLINOIS

CITY           SKY/WX    TMP DP  RH WIND       PRES   REMARKS
QUINCY         CLEAR     18  12  77 W9        30.56F WCI   7
GALESBURG*     FLURRIES  22  17  81 NW10      30.51F WCI  11
MACOMB*        CLOUDY    23  16  74 W12       30.55F WCI  12
JACKSONVILLE*  PTCLDY    20  12  72 W8        30.56S WCI  10
PITTSFIELD*    CLEAR     19  13  75 W5        30.58S WCI  13
$$

ILZ028>032-037-038-041>044-048-051>054-059>061-090700-
CENTRAL ILLINOIS

CITY           SKY/WX    TMP DP  RH WIND       PRES   REMARKS
BLOOMINGTON    FLURRIES  21  14  74 NW12      30.49S WCI   9
DECATUR        CLOUDY    21  13  71 NW10      30.53S WCI  10
PEORIA         CLOUDY    22  15  75 NW7       30.52S WCI  13
6HR MIN TEMP:  21; 6HR MAX TEMP:  22; 6HR PCP: TRACE;

SPRINGFIELD    CLOUDY    23  15  71 W8        30.55S WCI  14
6HR MIN TEMP:  19; 6HR MAX TEMP:  23;

TAYLORVILLE    CLOUDY    21  13  71 CALM      30.55F
6HR MIN TEMP:  19; 6HR MAX TEMP:  23;

$$

ILZ033-039-045-046-055>057-062-063-090700-
EAST-CENTRAL ILLINOIS

CITY           SKY/WX    TMP DP  RH WIND       PRES   REMARKS
CHAMPAIGN      FLURRIES  22  14  71 W16       30.51S WCI   8
MATTOON        CLOUDY    20  12  71 NW13      30.52S WCI   7
PARIS*         FLURRIES  21  17  86 W15       30.52S WCI   7
$$

ILZ079-100>102-090700-
SOUTHWEST ILLINOIS

CITY           SKY/WX    TMP DP  RH WIND       PRES   REMARKS
BELLEVILLE     CLEAR     21  13  71 NW9       30.58R WCI  11
CAHOKIA*       CLEAR     23  12  62 NW10      30.60S WCI  12
SPARTA*        CLEAR     22  13  70 NW6       30.59S WCI  14
$$

ILZ064>066-069>071-074>076-080>082-084>086-088>090-092>094-090700-
SOUTH-CENTRAL ILLINOIS

CITY           SKY/WX    TMP DP  RH WIND       PRES   REMARKS
CARBONDALE     CLEAR     22  14  71 NW7       30.59R WCI  13
6HR MIN TEMP:  22; 6HR MAX TEMP:  27;

CAIRO*         CLEAR     23  14  68 W5        30.60S WCI  17
CENTRALIA*     PTCLDY    25  15  65 NW9G17    30.57R WCI  15
SALEM*         PTCLDY    24  14  65 NW8       30.56S WCI  15
$$

ILZ067-068-072-073-078-083-087-091-090700-
SOUTHEAST ILLINOIS

CITY           SKY/WX    TMP DP  RH WIND       PRES   REMARKS
LAWRENCEVILLE  CLOUDY    24  13  62 NW13G22   30.56R WCI  12
HARRISBURG*    CLOUDY    25  16  68 NW7       30.58S WCI  17
ROBINSON*      CLOUDY    22  13  69 NW13      30.56S WCI  10
CARMI*         CLOUDY    26  16  64 N12G18    30.56S WCI  16
$$

ABBREVIATIONS USED IN REMARKS
   TC - TEMPERATURE IN CELSIUS
  WCI - WIND CHILL INDEX
   HX - HEAT INDEX
  VSB - VISIBILITY
$$




USA.gov is the U.S. government's official web portal to all federal, state and local government web resources and services.